Location: Unspecified
(52.0000°N, 4.4000°E)
Time: 00:49:52
(UTC+00:00)

Cosmos 1356 Rocket - Pass Details

Date: 14 May 2025
Orbit: 517 x 565 km, 81.2° (Epoch: 23 June)

Event Time Altitude Azimuth Distance (km) Brightness Sun altitude
Exits shadow 22:39:58 21° 223° (SW) 1,286 4.9 -18.0°
Maximum altitude 22:42:23 47° 288° (WNW) 763 4.2 -18.1°
Drops below altitude 10° 22:46:23 10° 3° (N) 1,870 7.2 -18.2°
Sets 22:48:39 0° 9° (N) 2,766 8.2 -18.3°
